This demonstration page uses our WeatherBlox Daily Observations layout. Learn more.

Left ArrowRight Arrow

39.08367, -84.50855

Hourly Observations for April 30, 2015

Temp ( °F °C ) Dew Point ( °F °C ) Humidity (%) Winds ( mph kmh ) Pressure ( in mb ) Visibility ( mi km ) Precip ( " mm )
12:53 am 00:53 Cloudy 58 14.4 43 6.1 58 58 WNW 3 6 29.78 1009 10 16 N/A
1:53 am 01:53 Cloudy 54 12.2 47 8.3 77 77 N N/A 29.78 1009 10 16 N/A
2:53 am 02:53 Mostly Cloudy 55 12.8 44 6.7 67 67 NW 3 6 29.77 1008 10 16 N/A
3:53 am 03:53 Mostly Cloudy 55 12.8 43 6.1 64 64 N N/A 29.76 1008 10 16 N/A
4:53 am 04:53 Cloudy 55 12.8 42 5.6 62 62 N N/A 29.76 1008 10 16 N/A
5:53 am 05:53 Mostly Cloudy 54 12.2 42 5.6 64 64 N N/A 29.76 1008 10 16 N/A
6:53 am 06:53 Cloudy 52 11.1 43 6.1 72 72 NW 3 6 29.78 1009 10 16 N/A
7:53 am 07:53 Sunny 51 10.6 43 6.1 74 74 NNW 8 13 29.80 1009 10 16 N/A
8:53 am 08:53 Sunny 54 12.2 45 7.2 72 72 N 8 13 29.81 1010 10 16 N/A
9:53 am 09:53 Partly Cloudy 56 13.3 45 7.2 67 67 NNW 8 13 29.82 1010 10 16 N/A
10:53 am 10:53 Sunny 59 15 45 7.2 60 60 N 13 20 29.81 1010 10 16 N/A
11:53 am 11:53 Partly Cloudy 61 16.1 44 6.7 54 54 NNW 9 15 29.81 1010 10 16 N/A
12:53 pm 12:53 Partly Cloudy 60 15.6 39 3.9 46 46 NNE 12 19 29.81 1010 10 16 N/A
1:53 pm 13:53 Mostly Cloudy 60 15.6 36 2.2 41 41 N 13 20 29.81 1010 10 16 N/A
2:53 pm 14:53 Partly Cloudy 57 13.9 42 5.6 58 58 W 8 13 29.83 1010 10 16 N/A
3:51 pm 15:51 Partly Cloudy 55 13 43 6 63 63 NNW 16 26 29.88 1012 10 16 N/A
3:53 pm 15:53 Cloudy 56 13.3 42 5.6 60 60 NNW 17 28 29.85 1011 10 16 N/A
4:53 pm 16:53 Cloudy with Light Rain 52 11.1 43 6.1 72 72 NNW 13 20 29.88 1012 10 16 N/A
5:53 pm 17:53 Cloudy 54 12.2 41 5 62 62 NW 7 11 29.87 1012 10 16 N/A
6:53 pm 18:53 Mostly Cloudy 57 13.9 39 3.9 51 51 NNW 10 17 29.88 1012 10 16 N/A
7:53 pm 19:53 Partly Cloudy 55 12.8 41 5 59 59 N 7 11 29.91 1013 10 16 N/A
8:53 pm 20:53 Mostly Cloudy 54 12.2 40 4.4 59 59 NNW 8 13 29.93 1014 10 16 N/A
9:53 pm 21:53 Mostly Cloudy 53 11.7 39 3.9 59 59 NNW 9 15 29.95 1014 10 16 N/A
10:53 pm 22:53 Clear 48 8.9 39 3.9 71 71 N N/A 29.97 1015 10 16 N/A
11:53 pm 23:53 Clear 43 6.1 39 3.9 86 86 N N/A 29.99 1016 10 16 N/A

Powered by AerisWeather